Tracking 28779 objects as of 15-Apr-2024
HD Live streaming from Space Station
objects crossing your sky now

FENGYUN 1C DEB

Track FENGYUN 1C DEB now!
10-day predictions


NORAD ID: 30659
Int'l Code: 1999-025APR
Perigee: 414.0 km
Apogee: 481.4 km
Inclination: 99.0 °
Period: 93.4 minutes
Semi major axis: 6818 km
RCS: 0.009 m2 (small)
Launch date: May 10, 1999
Source: People's Republic of China (PRC)
Launch site: Taiyaun Space Center, China (TSC)

Note: This is SATELLITE DEBRIS
Your satellite tracking list
Your tracking list is empty




NASA's NSSDC Master Catalog

Two Line Element Set (TLE):
1 30659U 99025APR 24105.42488327  .00173094  00000-0  38268-2 0  9991
2 30659  99.0104 182.2972 0049428 151.4955 208.9006 15.41880246925499
Source of the keplerian elements: AFSPC